Tracking 21045 objects as of 4-Aug-2020
HD Live streaming from Space Station
objects crossing your sky now

PSLV DEB

Track PSLV DEB now!
10-day predictions


NORAD ID: 27097
Int'l Code: 2001-049AR
Perigee: 410.5 km
Apogee: 446.6 km
Inclination: 97.6 °
Period: 93.0 minutes
Semi major axis: 6799 km
RCS: 0.0202 m2 (small)
Launch date: October 22, 2001
Source: India (IND)
Launch site: SRIHARIKOTA (SRI)

Note: This is SATELLITE DEBRIS
aabbcc
Your satellite tracking list
Your tracking list is empty




NASA's NSSDC Master Catalog

Two Line Element Set (TLE):
1 27097U 01049AR  20216.98337714  .00012262  00000-0  23010-3 0  9994
2 27097  97.5810  28.1169 0026519  53.5627 306.8062 15.48390187 18993
Source of the keplerian elements: AFSPC